Theta_e
312 313 312 311 310 306 299 293 286 295 295 286 277 282 278 284 284 288 286 284 282 280 280 279 278 280 283 288 288 282 286 283 278 282 288 292 289 285 286 280 282 284 284 284
312 313 312 311 310 305 295 289 289 294 294 283 280 278 282 284 283 284 285 283 284 284 281 277 279 282 287 288 286 283 286 282 277 281 285 289 285 287 288 287 285 284 282 285
312 312 311 310 309 303 295 290 285 287 288 283 282 278 279 280 286 284 286 285 285 282 279 282 279 282 285 288 286 288 287 283 280 276 280 284 282 284 287 286 282 283 284 285
312 312 311 310 309 302 296 287 284 282 282 283 282 282 281 280 279 284 285 283 283 281 277 278 278 281 283 285 286 285 284 279 282 283 284 284 284 283 286 285 286 283 285 286
312 312 311 310 308 302 293 286 283 283 280 282 283 282 280 280 280 282 281 281 282 283 279 280 277 281 281 280 283 282 284 278 280 279 285 285 282 285 286 286 286 287 286 287
311 311 311 310 308 303 291 286 286 289 283 282 282 282 280 280 283 284 285 284 282 281 283 285 285 285 285 284 280 280 280 279 277 277 282 281 280 282 283 284 284 284 285 288
311 311 310 309 307 302 292 289 288 287 278 282 282 281 282 281 283 281 283 285 282 284 287 286 285 283 282 282 282 284 279 279 280 276 280 275 283 287 286 285 283 284 285 289
310 310 310 309 307 301 293 289 290 287 279 282 281 282 282 283 283 282 283 285 286 286 284 279 275 274 275 276 280 283 283 280 279 276 276 280 283 284 283 283 283 284 283 287
309 309 309 309 307 301 293 291 291 290 283 282 284 283 283 282 281 280 280 284 286 285 279 275 271 271 268 273 275 282 283 283 279 277 274 274 281 285 286 285 281 285 285 286
309 309 309 309 308 303 295 290 290 290 285 283 284 283 282 283 280 280 277 280 281 281 277 273 272 273 270 272 271 275 277 279 276 277 276 280 285 286 286 280 280 285 285 285
309 308 309 308 307 304 297 288 289 291 285 283 284 284 281 281 281 280 277 279 277 276 275 274 272 272 273 271 274 277 277 277 277 275 274 276 286 287 283 285 286 285 285 285
308 308 309 308 306 303 296 289 288 288 286 283 285 285 285 284 283 282 278 278 276 280 276 273 273 272 270 270 273 276 275 281 280 279 281 286 286 286 287 287 286 286 286 286
308 308 309 308 305 303 296 288 287 287 283 281 283 282 285 287 286 285 283 279 281 280 279 277 276 272 275 273 272 273 276 280 281 281 285 286 285 284 283 283 285 286 286 286
308 308 308 307 305 303 293 290 288 289 284 283 278 285 282 287 287 286 286 284 283 281 281 276 275 274 277 276 275 274 278 280 279 280 283 285 281 281 282 283 283 283 284 285
308 307 307 306 305 301 291 288 288 288 289 280 276 280 283 286 285 284 285 284 282 281 277 274 274 275 275 276 274 273 278 278 277 277 281 282 283 280 280 281 281 280 281 283
307 307 307 305 302 298 296 286 290 287 286 281 277 278 281 283 284 284 283 283 282 282 278 277 277 280 276 271 269 276 277 278 280 280 280 280 281 280 279 279 279 278 278 278
307 307 306 303 301 299 289 287 291 289 288 282 273 272 279 282 283 282 281 282 281 281 278 276 276 277 277 272 268 277 276 278 278 278 278 279 279 279 277 277 277 274 273 273
306 305 302 302 300 293 287 287 290 286 282 280 270 270 273 280 277 277 282 278 279 278 277 277 275 276 275 268 274 275 274 274 275 276 276 276 273 273 274 271 272 272 273 272
304 302 302 296 289 285 284 290 287 283 285 279 274 273 271 277 276 279 279 280 273 276 273 273 272 269 267 273 274 272 274 275 277 270 267 266 268 271 270 269 269 272 272 271
301 297 288 285 285 292 291 283 283 283 278 274 276 270 272 276 277 275 275 277 273 268 270 270 268 269 273 273 274 273 271 271 269 271 272 267 269 267 266 268 265 268 270 269
292 284 281 286 293 286 279 275 277 275 275 273 272 272 271 276 272 271 275 269 267 267 267 267 266 267 273 272 269 270 270 270 269 268 268 266 270 270 269 266 266 267 267 268
288 286 287 285 284 279 280 275 267 270 275 267 271 270 273 273 273 271 271 266 264 269 259 265 268 274 274 269 269 266 263 263 263 262 266 264 266 264 262 264 266 265 265 265
291 285 279 284 275 273 274 269 266 267 268 267 270 270 271 269 269 265 267 267 267 258 264 269 273 274 271 268 264 261 257 258 261 261 261 262 261 258 260 263 261 264 264 263
284 280 275 279 272 272 272 274 273 273 270 270 271 267 271 267 268 264 269 260 262 265 265 271 277 273 272 267 263 264 264 261 264 265 262 262 262 262 259 260 263 266 266 263
282 282 277 271 271 266 267 271 272 270 275 271 269 267 270 264 264 261 261 262 265 269 273 275 276 270 268 266 264 265 265 263 263 262 263 263 262 264 262 260 264 266 264 265
279 276 271 268 272 266 268 270 270 271 275 271 271 265 266 265 265 264 267 269 269 276 272 275 269 266 266 266 265 266 266 265 265 263 264 264 263 265 265 262 263 263 266 265
277 273 266 274 277 274 273 274 274 277 276 274 268 268 269 261 263 264 266 270 276 275 273 268 267 269 268 265 265 264 264 265 265 264 264 264 262 262 265 266 263 264 264 263
Wind_Speed
21 22 23 23 22 18 5 3 1 3 2 2 1 2 5 4 3 3 3 3 5 4 3 5 5 6 5 3 6 9 4 5 7 19 13 3 3 10 5 6 4 5 2 3
24 25 25 25 25 17 6 4 2 1 2 3 2 1 3 3 4 4 4 5 7 3 4 6 6 6 6 10 7 6 7 4 8 7 3 4 6 5 8 11 6 4 4 3
26 27 27 26 26 16 6 4 3 2 3 1 5 5 4 3 4 3 4 3 3 3 6 7 7 8 8 10 8 8 6 5 8 12 16 15 11 17 17 4 6 8 4 7
30 29 28 28 26 17 5 2 2 1 4 4 4 3 6 4 4 4 4 3 8 5 5 6 6 5 13 7 2 10 5 6 7 14 19 15 16 14 13 3 7 5 6 7
32 30 30 29 26 15 4 6 6 2 3 4 7 2 6 7 3 6 5 7 2 9 8 8 9 9 8 8 6 12 5 5 7 9 6 11 8 10 14 9 7 6 8 5
33 33 32 31 27 13 4 3 1 3 6 4 4 4 6 7 7 6 4 6 3 8 14 12 14 11 11 13 12 9 5 6 5 5 13 16 1 13 10 6 13 8 6 5
35 33 33 32 30 17 4 4 4 4 4 6 5 4 6 8 9 2 1 6 4 1 5 11 9 10 12 12 13 10 6 8 4 7 10 4 5 7 5 2 13 14 11 10
35 33 32 35 32 19 4 4 4 4 4 5 4 6 5 3 1 3 4 5 2 4 5 4 6 3 2 2 6 6 9 5 5 4 5 6 2 7 6 6 7 8 12 10
39 38 34 32 31 19 5 2 2 4 8 8 4 6 6 4 3 2 3 1 1 0 2 2 2 3 1 4 9 3 6 9 5 2 4 2 2 6 5 3 5 13 13 12
38 38 37 37 34 25 6 3 1 4 4 2 4 4 6 5 3 2 2 2 2 2 1 0 2 2 1 3 3 2 3 3 5 4 3 6 5 14 4 3 5 11 8 10
37 37 37 37 33 27 7 3 0 3 3 2 1 2 4 3 2 3 3 2 1 2 2 2 1 2 1 3 4 3 4 3 3 0 3 2 8 4 7 3 4 5 5 6
38 37 36 35 34 28 12 5 1 3 7 4 2 3 2 1 2 3 2 1 2 2 3 2 1 3 2 1 4 3 4 4 3 6 4 3 5 3 4 3 3 3 4 5
37 36 36 34 32 26 10 5 5 5 5 3 1 2 1 2 4 2 2 1 1 2 2 2 0 5 3 4 7 3 5 3 3 3 2 2 3 3 5 4 4 5 5 5
38 37 37 36 34 26 13 5 4 5 4 4 1 0 1 4 2 2 2 5 5 4 1 1 1 3 1 3 4 4 2 3 3 6 8 3 4 3 5 7 5 5 6 3
41 39 36 34 32 25 10 5 2 1 5 4 2 0 1 3 2 1 1 2 3 2 2 1 3 2 2 1 3 6 7 7 8 5 2 1 1 1 2 4 5 6 5 4
35 35 36 35 31 25 9 4 2 3 4 6 3 3 2 2 1 1 1 2 2 1 1 2 2 1 1 3 5 7 8 5 3 2 2 3 2 2 0 3 4 5 4 4
40 39 37 35 31 12 6 6 4 12 3 5 4 2 2 2 3 1 1 1 1 1 1 2 2 2 1 3 6 5 4 6 3 2 1 4 3 0 4 3 3 3 3 3
40 38 37 35 26 17 5 3 10 4 8 3 5 1 1 2 3 3 2 2 1 1 1 1 2 1 3 8 13 7 2 1 5 8 5 2 3 3 3 3 3 3 2 2
41 39 34 16 3 4 3 11 10 4 4 5 3 6 4 3 2 2 2 2 2 1 2 1 1 2 10 13 8 5 8 8 4 2 1 3 4 4 4 3 2 3 2 3
46 26 6 4 3 29 18 8 4 5 4 3 3 2 4 5 4 4 4 2 1 2 1 1 3 8 10 10 10 5 5 6 7 4 2 1 3 4 2 2 2 3 3 5
11 5 4 5 23 5 4 4 4 1 2 4 3 3 8 4 4 4 2 3 2 2 2 3 2 7 7 3 5 6 7 7 7 1 3 3 2 6 6 5 5 3 4 3
11 16 10 4 4 4 5 3 1 5 9 4 7 4 4 5 2 4 3 3 1 3 1 1 5 8 5 4 4 4 4 5 6 5 5 3 3 2 2 3 5 4 4 5
13 7 6 5 1 6 13 13 6 5 7 7 7 5 4 4 3 4 3 4 4 1 2 6 8 3 3 5 4 4 3 3 4 5 3 3 2 2 2 4 3 6 7 5
6 6 9 9 9 10 7 6 8 4 6 12 6 6 4 2 4 2 5 1 1 1 3 9 4 7 6 7 4 6 7 7 5 6 5 5 5 4 3 2 4 6 6 5
6 7 9 8 3 3 2 4 7 3 12 9 6 5 3 3 5 1 5 3 5 7 8 5 4 5 7 7 6 6 7 7 6 5 5 6 6 6 6 3 4 5 6 6
4 3 5 1 7 2 2 2 6 4 11 4 4 6 5 3 6 5 10 8 9 6 6 4 3 5 5 5 6 6 6 7 6 5 5 6 6 7 7 5 4 5 5 7
6 3 0 4 6 10 7 4 6 10 10 7 5 7 6 6 3 4 6 9 5 4 2 2 3 5 6 5 5 5 6 7 7 5 5 5 5 7 7 8 4 4 5 5
Wind_Direction
183 177 169 165 158 146 80 108 134 11 307 53 14 142 191 194 192 187 224 248 258 269 260 271 270 267 257 346 345 313 309 290 282 287 316 308 287 275 238 259 337 252 309 286
181 175 170 168 160 156 130 104 93 46 273 180 156 277 248 209 193 197 197 225 218 212 280 291 229 268 271 312 340 322 345 290 293 291 177 194 298 265 244 275 247 246 258 9
180 176 171 170 166 155 95 130 145 18 62 15 134 169 207 207 207 232 224 242 196 219 265 232 275 289 300 329 327 315 297 255 284 302 302 303 296 306 297 259 280 322 10 300
178 177 172 170 169 157 104 37 176 321 165 211 161 168 161 162 203 214 223 238 217 193 272 283 243 274 306 296 28 348 338 267 278 287 283 282 308 306 311 311 304 333 327 327
177 174 171 171 167 149 92 142 153 169 106 162 137 201 207 197 211 196 218 229 208 204 239 230 290 305 303 282 307 338 336 276 313 284 250 297 307 354 356 350 347 340 310 359
179 174 172 169 164 158 134 133 58 102 150 149 163 208 192 209 180 216 236 221 245 247 257 271 272 272 271 274 299 309 294 320 310 272 323 318 86 357 352 342 9 319 341 334
174 176 174 168 171 175 121 169 139 119 160 198 209 201 188 209 207 252 182 194 199 333 319 282 262 262 264 263 263 251 281 306 281 311 323 26 0 34 35 337 14 1 341 345
175 175 178 168 175 167 112 155 147 132 133 189 193 192 193 214 243 244 251 229 234 342 325 307 320 325 328 277 263 262 233 281 304 314 304 300 359 13 17 352 15 0 337 348
176 176 175 173 177 161 102 140 121 117 127 218 128 159 191 204 193 263 240 125 16 44 54 36 321 303 321 319 332 252 235 232 276 323 316 314 16 325 319 239 13 7 357 356
177 179 173 174 174 170 120 116 223 101 114 149 156 166 177 149 126 237 259 185 129 355 141 185 231 272 316 294 279 285 279 226 256 287 280 292 300 310 285 59 337 337 343 352
178 178 178 171 168 167 139 112 359 109 98 132 159 142 146 130 171 190 154 148 130 88 190 216 168 236 196 274 256 224 220 229 244 152 260 281 2 346 50 340 313 312 326 347
176 178 176 170 167 163 129 109 66 70 77 91 62 73 43 44 149 140 187 44 158 160 106 207 141 222 219 249 284 192 252 232 307 218 263 32 357 350 350 314 276 324 331 337
175 177 170 168 165 164 127 119 145 79 104 73 143 151 60 68 74 8 214 208 134 136 12 154 64 245 158 221 234 273 234 232 249 310 259 269 50 17 10 329 301 330 333 332
172 171 169 167 162 158 122 130 154 90 95 129 131 147 64 130 92 31 34 113 100 99 72 93 206 245 176 260 312 248 271 180 206 261 286 307 103 53 346 340 4 358 341 13
172 171 166 158 158 147 92 84 132 121 133 142 139 95 263 110 100 164 203 145 174 139 164 197 241 267 272 277 282 240 192 197 202 220 187 271 144 10 346 359 3 9 338 357
159 161 156 153 147 137 130 70 243 183 133 110 126 332 165 121 143 218 147 61 82 152 205 216 245 173 240 280 257 259 212 217 222 250 209 229 282 304 340 340 357 7 357 2
161 156 152 144 147 148 136 181 184 155 117 100 103 115 42 21 103 101 143 102 104 225 202 219 236 222 244 251 249 263 232 241 241 241 256 261 207 158 1 352 4 354 351 359
153 145 137 143 126 114 53 9 104 92 90 71 119 81 239 186 153 178 184 150 156 188 292 192 226 219 227 250 241 251 241 341 278 238 211 285 327 300 332 332 3 45 30 20
131 130 127 121 86 102 128 125 81 60 113 150 148 159 168 161 168 124 178 182 209 70 242 158 229 218 229 225 225 218 203 197 213 111 69 347 245 261 278 350 28 119 134 95
125 123 92 121 219 126 135 18 41 1 344 52 124 123 132 168 159 168 149 182 234 235 232 338 226 259 264 250 224 206 189 181 155 117 276 214 260 202 180 185 201 204 149 132
120 109 92 128 153 90 54 101 137 201 254 173 133 162 137 204 141 160 182 159 142 233 139 236 240 266 243 209 208 201 192 189 195 120 106 144 167 167 170 188 206 170 122 119
126 110 100 109 96 62 142 171 85 209 211 157 136 166 123 136 132 115 157 134 150 231 94 219 253 248 242 195 190 164 164 171 191 202 182 177 183 170 158 127 129 139 131 134
128 82 97 134 93 149 186 184 218 202 165 168 157 127 119 115 96 82 141 154 199 152 190 237 235 260 235 198 169 139 141 158 149 163 173 138 138 120 156 144 141 136 122 137
110 128 139 186 182 220 181 161 161 176 120 136 129 109 124 122 102 139 131 80 173 156 260 236 235 217 192 168 166 141 182 185 180 161 144 153 158 147 127 157 154 136 126 129
125 139 197 191 140 64 101 104 109 127 139 131 108 79 99 89 106 52 117 98 238 216 229 232 229 192 158 166 177 179 163 164 162 157 161 158 152 145 123 149 150 112 119 117
99 124 114 98 115 99 122 134 112 179 142 109 67 116 101 164 139 140 213 155 219 230 214 220 149 163 170 165 174 173 151 157 147 155 157 139 151 148 129 115 105 121 137 136
140 181 112 171 134 154 148 139 152 157 145 149 133 126 180 110 115 228 196 207 221 218 228 177 181 164 173 155 141 145 150 151 150 142 143 129 129 125 123 127 146 129 100 91